SL-16 DEB, 22295

Orbit data source: Space-Track

SL-16 DEB, 22295 is space debris in LEO originally from a launch on Fri, 25 Dec 1992 UTC launched from the Tyuratam Missile And Space Complex (TTMTR). Debris objects in space refer to the collection of defunct objects orbiting the Earth. Examples of debris include non-operational satellites, rocket bodies, and fragments generated from explosions, collisions, or faulty payload assembly.

Loading next visibility...
Identifier
22295, 1992-093K
Orbit
LEO
Country
Flag of CISCIS
Related business
Manufacturer
Unknown
Mission
Spacecraft
Bus & Motor
Unknown
Mass
Unknown
Launch date (UTC)
1992-12-25 (33 years ago)
Launch vehicle
Unknown
Launch site
Tyuratam Missile And Space Complex (TTMTR)
Object type
Payload
Rocket body
Debris
Shape & HBR
Unknown shape, 0.5 m
Radar Cross Section
Medium (>0.1 m² and <1 m²)

Expand to show TLE details & history
Last TLE update: 11 hours ago

TLE from 11 hours ago
0 SL-16 DEB
1 22295U 92093K   26037.12055856  .00000131  00000-0  10219-3 0  9994
2 22295  71.0045  76.5650 0099544 262.0722 113.8207 14.07039964698727
Epoch: 2026-02-06T02:53Z
TLE epoch observation values (Epoch: 2026-02-06T02:53:36.259Z)
Latitude
15.97379°
Longitude
-97.47377°
Altitude
900.983 km
Speed
7.388 km/s
True Right ascension
05h 28m 45s
True Declination
15° 53' 05"
Sunlit
Object was in full shadow at epoch
Visualization orbit readout
Latitude
Unknown
Longitude
Unknown
Altitude
Unknown
Speed
Unknown
Apparent Right ascension
Unknown
Apparent Declination
Unknown
Sunlit
N/A
Visualization observer readout
Local Sidereal Time
15:52:09
Azimuth
Unknown
Elevation
Unknown
Doppler factor
Unknown
Orbital elements
Apogee altitude
939.576 km
Perigee altitude
795.325 km
Semi-major axis
7,245.588 km
Eccentricity
0.00995
Inclination
71.0045°
RAAN
76.565°
Arg. of periapsis
262.0722°
True anomaly
114.85894°
Mean anomaly
113.8207°
Eccentric anomaly
114.34035°
Mean motion
3.51911 °/min
Orbital period
102.3 mins
BSTAR
0.00010219
Loading maneuver chart data...
Computing Atmospheric mass density...

Documentation

Showing up to 5 results
|